When you browse on this site, cookies collect data to enhance your experience and personalize the content and advertising you see.
Visit our Privacy Policy to learn more. By continuing to use the site, you agree to this use of cookies and data.
  • In United Kingdom
  • List of Countries
  • For 7 days
  • Water Temperature
  • Weather Map
  • Weather Widgets
  • user-avatar
    Login

    Hourly Weather Jacksonville

    Today, 21 August, Wednesday

    Time Temperature Precipitation Wind Pressure Humidity
    00:00 +29°C° 0 mm 2 mps 763 mmHg 78%
    01:00 +28°C° 0 mm 2 mps 763 mmHg 79%
    02:00 +28°C° 0 mm 2 mps 763 mmHg 80%
    03:00 +28°C° 0 mm 2 mps 763 mmHg 81%
    04:00 +27°C° 0 mm 1 mps 762 mmHg 82%
    05:00 +28°C° 0 mm 1 mps 763 mmHg 81%
    06:00 +28°C° 0 mm 1 mps 763 mmHg 81%
    07:00 +28°C° 0 mm 1 mps 763 mmHg 80%
    08:00 +30°C° 0 mm 1 mps 763 mmHg 70%
    09:00 +32°C° 0 mm 1 mps 764 mmHg 59%
    10:00 +34°C° 0 mm 1 mps 764 mmHg 48%
    11:00 +36°C° 0 mm 1 mps 764 mmHg 43%
    12:00 +38°C° 0 mm 2 mps 764 mmHg 38%
    13:00 +40°C° 0 mm 2 mps 764 mmHg 32%
    14:00 +39°C° 0 mm 2 mps 763 mmHg 35%
    15:00 +38°C° 0 mm 3 mps 762 mmHg 37%
    16:00 +37°C° 0 mm 4 mps 762 mmHg 40%
    17:00 +36°C° 0 mm 4 mps 762 mmHg 45%
    18:00 +34°C° 0 mm 4 mps 762 mmHg 51%
    19:00 +33°C° 0 mm 3 mps 762 mmHg 56%
    20:00 +31°C° 0 mm 3 mps 762 mmHg 60%
    21:00 +30°C° 0 mm 3 mps 762 mmHg 64%
    22:00 +30°C° 0 mm 3 mps 762 mmHg 67%
    23:00 +29°C° 0 mm 2 mps 762 mmHg 69%

    Tomorrow, 22 August, Thursday

    Time Temperature Precipitation Wind Pressure Humidity
    00:00 +29°C° 0 mm 2 mps 762 mmHg 72%
    01:00 +29°C° 0 mm 2 mps 762 mmHg 74%
    02:00 +28°C° 0 mm 1 mps 762 mmHg 75%
    03:00 +28°C° 0 mm 1 mps 762 mmHg 77%
    04:00 +28°C° 0 mm 1 mps 762 mmHg 78%
    05:00 +28°C° 0 mm 1 mps 762 mmHg 77%
    06:00 +28°C° 0 mm 1 mps 762 mmHg 77%
    07:00 +28°C° 0 mm 1 mps 763 mmHg 76%
    08:00 +31°C° 0 mm 1 mps 763 mmHg 67%
    09:00 +33°C° 0 mm 1 mps 763 mmHg 57%
    10:00 +35°C° 0 mm 1 mps 763 mmHg 48%
    11:00 +36°C° 0 mm 1 mps 763 mmHg 44%
    12:00 +38°C° 0 mm 2 mps 763 mmHg 39%
    13:00 +39°C° 0 mm 2 mps 763 mmHg 35%
    14:00 +38°C° 0 mm 3 mps 762 mmHg 37%
    15:00 +38°C° 0 mm 4 mps 761 mmHg 40%
    16:00 +37°C° 0 mm 4 mps 761 mmHg 43%
    17:00 +36°C° 0 mm 4 mps 761 mmHg 49%
    18:00 +34°C° 0 mm 4 mps 761 mmHg 55%
    19:00 +33°C° 0 mm 3 mps 761 mmHg 61%
    20:00 +31°C° 0 mm 3 mps 762 mmHg 63%
    21:00 +30°C° 0 mm 3 mps 762 mmHg 66%
    22:00 +30°C° 0 mm 2 mps 762 mmHg 69%
    23:00 +29°C° 0 mm 2 mps 762 mmHg 70%

    Day after tomorrow, 23 August, Friday

    Time Temperature Precipitation Wind Pressure Humidity
    00:00 +29°C° 0 mm 2 mps 762 mmHg 72%
    01:00 +29°C° 0 mm 2 mps 762 mmHg 73%
    02:00 +28°C° 0 mm 2 mps 762 mmHg 74%
    03:00 +28°C° 0 mm 1 mps 761 mmHg 76%
    04:00 +28°C° 0 mm 1 mps 761 mmHg 77%
    05:00 +28°C° 0 mm 1 mps 762 mmHg 76%
    06:00 +28°C° 0 mm 1 mps 762 mmHg 76%
    07:00 +26°C° 0 mm 0 mps 763 mmHg 76%
    08:00 +29°C° 0 mm 0 mps 763 mmHg 67%
    09:00 +31°C° 0 mm 0 mps 763 mmHg 58%
    10:00 +33°C° 0 mm 0 mps 763 mmHg 49%
    11:00 +36°C° 0 mm 1 mps 763 mmHg 45%
    12:00 +38°C° 0 mm 2 mps 762 mmHg 40%
    13:00 +39°C° 0 mm 2 mps 762 mmHg 36%
    14:00 +39°C° 0 mm 3 mps 761 mmHg 37%
    15:00 +38°C° 0 mm 3 mps 761 mmHg 39%
    16:00 +37°C° 0 mm 4 mps 760 mmHg 40%
    17:00 +36°C° 0 mm 4 mps 760 mmHg 46%
    18:00 +34°C° 0 mm 4 mps 760 mmHg 52%
    19:00 +31°C° 0 mm 3 mps 761 mmHg 59%
    20:00 +31°C° 0 mm 3 mps 761 mmHg 63%
    21:00 +30°C° 0 mm 2 mps 761 mmHg 67%
    22:00 +29°C° 0 mm 2 mps 762 mmHg 72%
    23:00 +29°C° 0 mm 2 mps 761 mmHg 74%

    24 August, Saturday

    Time Temperature Precipitation Wind Pressure Humidity
    00:00 +29°C° 0 mm 1 mps 761 mmHg 76%
    01:00 +28°C° 0 mm 1 mps 761 mmHg 78%
    02:00 +28°C° 0 mm 1 mps 761 mmHg 80%
    03:00 +28°C° 0 mm 1 mps 760 mmHg 81%
    04:00 +26°C° 0 mm 0 mps 760 mmHg 82%
    05:00 +26°C° 0 mm 0 mps 760 mmHg 81%
    06:00 +26°C° 0 mm 0 mps 761 mmHg 80%
    07:00 +26°C° 0 mm 0 mps 761 mmHg 79%
    08:00 +29°C° 0 mm 0 mps 761 mmHg 68%
    09:00 +31°C° 0 mm 0 mps 761 mmHg 57%
    10:00 +34°C° 0 mm 0 mps 762 mmHg 46%
    11:00 +37°C° 0 mm 1 mps 761 mmHg 42%
    12:00 +39°C° 0 mm 2 mps 761 mmHg 37%
    13:00 +40°C° 0 mm 2 mps 761 mmHg 33%
    14:00 +39°C° 0 mm 3 mps 760 mmHg 35%
    15:00 +38°C° 0 mm 3 mps 760 mmHg 37%
    16:00 +38°C° 0 mm 4 mps 759 mmHg 39%
    17:00 +36°C° 0 mm 4 mps 759 mmHg 47%
    18:00 +34°C° 0 mm 4 mps 759 mmHg 55%
    19:00 +33°C° 0 mm 3 mps 759 mmHg 62%
    20:00 +31°C° 0 mm 3 mps 760 mmHg 66%
    21:00 +30°C° 0 mm 2 mps 760 mmHg 69%
    22:00 +30°C° 0 mm 2 mps 760 mmHg 73%
    23:00 +30°C° 0 mm 2 mps 760 mmHg 74%

    25 August, Sunday

    Time Temperature Precipitation Wind Pressure Humidity
    00:00 +29°C° 0 mm 2 mps 760 mmHg 75%
    01:00 +29°C° 0 mm 1 mps 759 mmHg 77%
    02:00 +29°C° 0 mm 1 mps 759 mmHg 77%
    03:00 +28°C° 0 mm 1 mps 759 mmHg 78%
    04:00 +28°C° 0 mm 1 mps 759 mmHg 78%
    05:00 +28°C° 0 mm 1 mps 759 mmHg 77%
    06:00 +28°C° 0 mm 1 mps 759 mmHg 76%
    07:00 +29°C° 0 mm 1 mps 760 mmHg 75%
    08:00 +31°C° 0 mm 1 mps 760 mmHg 66%
    09:00 +33°C° 0 mm 1 mps 760 mmHg 57%
    10:00 +35°C° 0 mm 1 mps 760 mmHg 47%
    11:00 +37°C° 0 mm 2 mps 760 mmHg 45%
    12:00 +38°C° 0 mm 2 mps 759 mmHg 43%
    13:00 +38°C° 0 mm 3 mps 759 mmHg 40%
    14:00 +38°C° 0 mm 3 mps 759 mmHg 43%
    15:00 +37°C° 0 mm 3 mps 758 mmHg 45%
    16:00 +36°C° 0 mm 4 mps 758 mmHg 48%
    17:00 +35°C° 0.2 mm 3 mps 758 mmHg 54%
    18:00 +33°C° 0.2 mm 3 mps 758 mmHg 60%
    19:00 +31°C° 0.2 mm 3 mps 758 mmHg 66%
    20:00 +30°C° 0.2 mm 3 mps 758 mmHg 69%
    21:00 +30°C° 0.2 mm 3 mps 759 mmHg 73%
    22:00 +29°C° 0.2 mm 2 mps 759 mmHg 76%
    23:00 +29°C° 0.1 mm 2 mps 759 mmHg 76%

    26 August, Monday

    Time Temperature Precipitation Wind Pressure Humidity
    00:00 +29°C° 0.1 mm 2 mps 759 mmHg 77%
    01:00 +29°C° 0.1 mm 2 mps 758 mmHg 78%
    02:00 +28°C° 0 mm 1 mps 758 mmHg 79%
    03:00 +28°C° 0 mm 1 mps 758 mmHg 79%
    04:00 +28°C° 0 mm 1 mps 758 mmHg 80%
    05:00 +28°C° 0 mm 1 mps 758 mmHg 80%
    06:00 +26°C° 0 mm 0 mps 759 mmHg 80%
    07:00 +27°C° 0 mm 0 mps 759 mmHg 79%
    08:00 +29°C° 0.1 mm 0 mps 759 mmHg 70%
    09:00 +31°C° 0.1 mm 0 mps 759 mmHg 61%
    10:00 +33°C° 0.1 mm 0 mps 760 mmHg 52%
    11:00 +36°C° 0.1 mm 1 mps 759 mmHg 49%
    12:00 +38°C° 0.1 mm 2 mps 759 mmHg 46%
    13:00 +38°C° 0.1 mm 2 mps 759 mmHg 42%
    14:00 +38°C° 0.1 mm 2 mps 759 mmHg 44%
    15:00 +37°C° 0.1 mm 2 mps 759 mmHg 46%
    16:00 +37°C° 0.1 mm 2 mps 758 mmHg 48%
    17:00 +36°C° 0.3 mm 2 mps 759 mmHg 52%
    18:00 +35°C° 0.3 mm 2 mps 759 mmHg 56%
    19:00 +34°C° 0.3 mm 2 mps 759 mmHg 60%
    20:00 +32°C° 1.1 mm 2 mps 759 mmHg 65%
    21:00 +31°C° 1.1 mm 2 mps 760 mmHg 70%
    22:00 +30°C° 1.1 mm 2 mps 761 mmHg 74%
    23:00 +29°C° 0 mm 2 mps 760 mmHg 77%
    Show more